Location: Ffald-y-Brenin
(52.0833°N, 4.0000°W)
Time: 19:54:17
(UTC+00:00)

Cosmos 1842 Rocket - Pass Details

Date: 18 February 2020
Orbit: 604 x 635 km, 82.5° (Epoch: 05 April)

Event Time Altitude Azimuth Distance (km) Brightness Sun altitude
Exits shadow 05:40:13 - 204° (SSW) 2,352 6.3 -16.9°
Reaches altitude 10° 05:41:05 10° 206° (SSW) 2,012 5.9 -16.8°
Maximum altitude 05:45:29 56° 285° (WNW) 762 3.6 -16.1°
Drops below altitude 10° 05:49:56 10° 4° (N) 2,035 6.3 -15.4°
Sets 05:52:14 0° 8° (N) 2,948 7.2 -15.1°
